Location: Krakow
(50.0212°N, 19.9423°E)
Time: 00:42:18
(UTC+02:00)

BUGSAT 1 - Visible Passes

Search period start: 25 April 2024 00:00
Search period end: 05 May 2024 00:00
Orbit: 533 x 581 km, 98.1° (Epoch: 24 April)

Date Brightness Start Highest point End Pass type
(mag) Time Alt. Az. Time Alt. Az. Time Alt. Az.
25 Apr ? 20:32:29 10° S 20:36:18 44° W 20:40:12 10° NNW visible
26 Apr ? 20:30:16 10° S 20:34:07 47° W 20:38:03 10° NNW visible
27 Apr ? 20:28:02 10° S 20:31:55 50° W 20:35:53 10° NNW visible
28 Apr ? 20:25:46 10° S 20:29:42 53° W 20:33:42 10° NNW visible
